Weather in Verkhnyaya Zlobinka

Russia / Bryansk Oblast     52°53′53″N   33°20′30″E
temp.,
°C
wind,
m/s
gust,
m/s
humid.,
%
clouds,
%
prec.,
mm/h
press.,
hPa
HPBL,
m
20 april, tue
tue2000:00+5ne599198 0.0 1018538
03:00+5ne5890100 0.1 1016541
06:00+5ne5895100 0.3 1015462
09:00+6ene6890100 0.3 1014604
12:00+6ne5994100 1.5 1013469
15:00+6ne5996100 6.2 1011500
18:00+9ene61084100 0.8 1009648
21:00+5ne6994100 0.8 1009441
21 april, wed
wed2100:00+4nne5797100 0.0 1007441
03:00+3nnw4697100 0.1 1006432
06:00+3nw3694100 0.1 1006510
09:00+4wnw4790100 0.1 1007646
12:00+5w5681100 0.1 1008801
15:00+7w4674100 0.2 1010880
18:00+7w468299 0.1 1011670
21:00+4ssw228998 0.1 101222
22 april, thu
thu2200:00+4ssw359293 0.0 1013112
03:00+3ssw33945 0.0 101459
06:00+2s339525 0.0 101558
09:00+8s35785 0.0 1015338
12:00+12s56575 0.0 10151186
15:00+14s565271 0.0 10141728
18:00+12s587338 0.6 1015663
21:00+8sse48914 0.7 1015139
23 april, fri
fri2300:00+7sse48935 0.1 1015137
03:00+7s410935 0.1 1014214
06:00+6ssw4109525 0.3 1015261
09:00+10s358196 0.3 1014470
12:00+15s8126474 0.1 10121516
15:00+8wnw6688100 2.5 1013400
18:00+4nw5792100 0.4 1015506
21:00+4wnw2496100 0.9 1015376
24 april, sat
sat2400:00+3wsw2591100 0.1 1015303
03:00+3ssw3794100 0.3 1013379
06:00+2wsw37968 0.0 1013276
09:00+5w457840 0.0 1012672
12:00+3w4897100 0.6 1012349
15:00+4wnw9108280 1.2 1013981
18:00+6wnw610585 0.1 10131976
21:00+2w511756 0.3 1014308